カタログに戻る

STARLINK-5014

運用中通信VLEO
NORAD 53926·PAYLOAD·🇺🇸 United States

打ち上げ Sep 24, 2022 から Cape Canaveral Space Force Station

Loading…

次のパス (今後24時間)

TLE

最新Source: CelesTrak SupGP

元期: Sep 14, 2026, 21:30 UTC

1 53926C 22119AS  26257.89631944 -.00051369  00000+0 -16520-2 0  2574
2 53926  53.1610 144.5602 0001571  95.9957 312.9741 15.31726026    14

AllMySatでSTARLINK-5014をリアルタイム追跡

Download on the App Store